Location: Lafig�re
(44.4503°N, 4.0357°E)
Time: 14:41:24
(UTC+00:00)

Vanguard 2 Rocket - Pass Details

Date: 24 June 2021
Orbit: 555 x 3325 km, 32.9° (Epoch: 28 July)

Event Time Altitude Azimuth Distance (km) Brightness Sun altitude
Rises 21:28:05 0° 270° (W) 7,309 12.0 -15.1°
Reaches altitude 10° 21:33:26 10° 266° (W) 6,198 11.5 -15.7°
Maximum altitude 21:50:51 47° 201° (SSW) 3,179 9.3 -17.2°
Enters shadow 21:59:18 22° 142° (SE) 3,616 9.3 -17.9°
